H1 CPF 2 NER 2026 2 13 9 044 01 glonass133 H2 1403201 9133 40001 2026 2 13 0 0 0 2026 2 16 23 45 0 900 1 1 0 0 0 1 H9 10 0 61084 0.00000 0 13336554.712 8106431.972 -20168619.587 10 0 61084 900.00000 0 10768515.094 8342108.396 -21560907.608 10 0 61084 1800.00000 0 8082648.681 8796672.601 -22534241.802 10 0 61084 2700.00000 0 5348729.254 9474175.236 -23069802.481 10 0 61084 3600.00000 0 2636941.796 10366094.466 -23157278.215 10 0 61084 4500.00000 0 15183.917 11451589.796 -22795058.460 10 0 61084 5400.00000 0 -2453527.559 12698289.711 -21990257.963 10 0 61084 6300.00000 0 -4713438.140 14063580.155 -20758573.009 10 0 61084 7200.00000 0 -6718127.560 15496339.987 -19123972.619 10 0 61084 8100.00000 0 -8432187.329 16939050.898 -17118230.820 10 0 61084 9000.00000 0 -9832435.642 18330193.727 -14780308.982 10 0 61084 9900.00000 0 -10908620.565 19606831.022 -12155600.015 10 0 61084 10800.00000 0 -11663583.734 20707267.918 -9295048.790 10 0 61084 11700.00000 0 -12112879.188 21573679.946 -6254165.551 10 0 61084 12600.00000 0 -12283864.645 22154597.693 -3091951.208 10 0 61084 13500.00000 0 -12214304.544 22407144.007 130244.839 10 0 61084 14400.00000 0 -11950544.548 22298929.741 3349912.303 10 0 61084 15300.00000 0 -11545335.102 21809528.171 6504590.060 10 0 61084 16200.00000 0 -11055396.328 20931465.815 9533075.173 10 0 61084 17100.00000 0 -10538827.292 19670687.548 12376607.513 10 0 61084 18000.00000 0 -10052469.144 18046475.828 14980007.059 10 0 61084 18900.00000 0 -9649333.475 16090826.642 17292741.986 10 0 61084 19800.00000 0 -9376204.408 13847307.333 19269907.088 10 0 61084 20700.00000 0 -9271515.605 11369443.006 20873093.844 10 0 61084 21600.00000 0 -9363591.809 8718697.772 22071135.581 10 0 61084 22500.00000 0 -9669329.307 5962133.749 22840713.570 10 0 61084 23400.00000 0 -10193371.351 3169844.195 23166812.487 10 0 61084 24300.00000 0 -10927813.969 412266.415 23043016.390 10 0 61084 25200.00000 0 -11852455.450 -2242514.877 22471639.338 10 0 61084 26100.00000 0 -12935580.116 -4731362.474 21463687.659 10 0 61084 27000.00000 0 -14135244.563 -6998472.756 20038654.063 10 0 61084 27900.00000 0 -15401013.436 -8997454.244 18224146.791 10 0 61084 28800.00000 0 -16676072.693 -10693012.502 16055360.231 10 0 61084 29700.00000 0 -17899632.187 -12062171.547 13574396.491 10 0 61084 30600.00000 0 -19009516.814 -13094981.108 10829450.411 10 0 61084 31500.00000 0 -19944837.100 -13794680.597 7873873.491 10 0 61084 32400.00000 0 -20648626.346 -14177313.493 4765134.758 10 0 61084 33300.00000 0 -21070332.426 -14270809.049 1563698.943 10 0 61084 34200.00000 0 -21168058.325 -14113570.994 -1668155.648 10 0 61084 35100.00000 0 -20910455.772 -13752633.710 -4867555.864 10 0 61084 36000.00000 0 -20278191.066 -13241464.939 -7972264.445 10 0 61084 36900.00000 0 -19264920.360 -12637509.192 -10921897.772 10 0 61084 37800.00000 0 -17877732.596 -11999576.921 -13659106.092 10 0 61084 38700.00000 0 -16137040.843 -11385190.919 -16130692.539 10 0 61084 39600.00000 0 -14075926.177 -10848002.976 -18288648.737 10 0 61084 40500.00000 0 -11738961.470 -10435390.561 -20091086.755 10 0 61084 41400.00000 0 -9180564.165 -10186335.311 -21503049.487 10 0 61084 42300.00000 0 -6462946.844 -10129672.862 -22497184.183 10 0 61084 43200.00000 0 -3653750.873 -10282787.574 -23054266.759 10 0 61084 44100.00000 0 -823461.417 -10650806.779 -23163567.486 10 0 61084 45000.00000 0 1957289.117 -11226328.023 -22823051.745 10 0 61084 45900.00000 0 4620417.841 -11989690.394 -22039412.678 10 0 61084 46800.00000 0 7102977.242 -12909778.223 -20827935.612 10 0 61084 47700.00000 0 9349523.820 -13945323.228 -19212197.236 10 0 61084 48600.00000 0 11314172.331 -15046650.383 -17223605.474 10 0 61084 49500.00000 0 12962251.619 -16157794.300 -14900788.918 10 0 61084 50400.00000 0 14271494.493 -17218897.381 -12288847.461 10 0 61084 51300.00000 0 15232713.487 -18168789.207 -9438478.395 10 0 61084 52200.00000 0 15849935.717 -18947638.963 -6404994.602 10 0 61084 53100.00000 0 16139992.454 -19499569.481 -3247253.660 10 0 61084 54000.00000 0 16131581.848 -19775123.023 -26518.430 10 0 61084 54900.00000 0 15863845.139 -19733474.960 3194728.904 10 0 61084 55800.00000 0 15384517.046 -19344301.998 6353996.356 10 0 61084 56700.00000 0 14747728.804 -18589225.975 9389991.802 10 0 61084 57600.00000 0 14011556.775 -17462771.960 12243809.369 10 0 61084 58500.00000 0 13235420.191 -15972799.683 14860069.581 10 0 61084 59400.00000 0 12477437.731 -14140389.268 17187991.332 10 0 61084 60300.00000 0 11791854.313 -11999184.965 19182375.148 10 0 61084 61200.00000 0 11226646.379 -9594223.150 20804478.915 10 0 61084 62100.00000 0 10821406.440 -6980292.203 22022769.469 10 0 61084 63000.00000 0 10605595.904 -4219891.298 22813535.733 10 0 61084 63900.00000 0 10597239.812 -1380871.772 23161351.691 10 0 61084 64800.00000 0 10802118.674 1466142.114 23059380.264 10 0 61084 65700.00000 0 11213491.875 4250447.003 22509512.022 10 0 61084 66600.00000 0 11812364.939 6903957.902 21522335.633 10 0 61084 67500.00000 0 12568290.181 9363798.015 20116940.053 10 0 61084 68400.00000 0 13440667.897 11574673.900 18320551.551 10 0 61084 69300.00000 0 14380494.088 13490937.540 16168011.781 10 0 61084 70200.00000 0 15332481.718 15078249.712 13701106.283 10 0 61084 71100.00000 0 16237466.481 16314775.513 10967755.763 10 0 61084 72000.00000 0 17034995.644 17191862.297 8021085.436 10 0 61084 72900.00000 0 17665990.432 17714171.986 4918390.412 10 0 61084 73800.00000 0 18075368.944 17899262.789 1720017.349 10 0 61084 74700.00000 0 18214517.926 17776638.567 -1511815.303 10 0 61084 75600.00000 0 18043507.903 17386306.775 -4714234.837 10 0 61084 76500.00000 0 17532957.018 16776906.924 -7824944.995 10 0 61084 77400.00000 0 16665463.782 16003489.696 -10783444.896 10 0 61084 78300.00000 0 15436547.325 15125041.705 -13532211.596 10 0 61084 79200.00000 0 13855054.693 14201861.533 -16017822.593 10 0 61084 80100.00000 0 11943017.421 13292898.749 -18191995.922 10 0 61084 81000.00000 0 9734962.908 12453168.889 -20012527.544 10 0 61084 81900.00000 0 7276709.094 11731353.747 -21444107.976 10 0 61084 82800.00000 0 4623692.576 11167688.140 -22459002.735 10 0 61084 83700.00000 0 1838899.670 10792221.824 -23037584.106 10 0 61084 84600.00000 0 -1009513.774 10623529.172 -23168704.656 10 0 61084 85500.00000 0 -3850815.179 10667920.190 -22849906.073 10 0 61085 0.00000 0 -6614393.328 10919185.250 -22087460.070 10 0 61085 900.00000 0 -9232451.921 11358883.726 -20896240.622 10 0 61085 1800.00000 0 -11642584.031 11957163.452 -19299431.487 10 0 61085 2700.00000 0 -13790126.524 12674076.546 -17328073.452 10 0 61085 3600.00000 0 -15630194.098 13461335.758 -15020460.930 10 0 61085 4500.00000 0 -17129311.022 14264437.462 -12421399.094 10 0 61085 5400.00000 0 -18266573.611 15025061.956 -9581335.710 10 0 61085 6300.00000 0 -19034296.206 15683650.102 -6555384.177 10 0 61085 7200.00000 0 -19438114.806 16182047.861 -3402256.498 10 0 61085 8100.00000 0 -19496545.121 16466107.302 -183126.658 10 0 61085 9000.00000 0 -19240014.548 16488134.434 3039553.655 10 0 61085 9900.00000 0 -18709409.496 16209080.494 6203264.065 10 0 61085 10800.00000 0 -17954199.792 15600383.988 9246625.774 10 0 61085 11700.00000 0 -17030219.468 14645385.430 12110589.714 10 0 61085 12600.00000 0 -15997197.581 13340254.473 14739579.509 10 0 61085 13500.00000 0 -14916143.079 11694389.592 17082567.286 10 0 61085 14400.00000 0 -13846693.646 9730272.359 19094061.704 10 0 61085 15300.00000 0 -12844539.896 7482781.150 20734989.303 10 0 61085 16200.00000 0 -11959032.982 4997991.507 21973452.435 10 0 61085 17100.00000 0 -11231075.902 2331511.699 22785349.377 10 0 61085 18000.00000 0 -10691386.974 -453578.674 23154844.779 10 0 61085 18900.00000 0 -10359208.311 -3289102.722 23074681.376 10 0 61085 19800.00000 0 -10241513.652 -6104375.614 22546326.763 10 0 61085 20700.00000 0 -10332749.047 -8828902.758 21579951.986 10 0 61085 21600.00000 0 -10615117.669 -11395075.634 20194241.820 10 0 61085 22500.00000 0 -11059397.228 -13740753.917 18416039.630 10 0 61085 23400.00000 0 -11626256.035 -15811626.894 16279832.947 10 0 61085 24300.00000 0 -12268012.701 -17563256.074 13827088.933 10 0 61085 25200.00000 0 -12930765.475 -18962713.936 11105451.952 10 0 61085 26100.00000 0 -13556801.378 -19989750.381 8167818.437 10 0 61085 27000.00000 0 -14087183.068 -20637438.199 5071306.838 10 0 61085 27900.00000 0 -14464403.551 -20912270.753 1876142.820 10 0 61085 28800.00000 0 -14634995.607 -20833708.164 -1355518.079 10 0 61085 29700.00000 0 -14551984.554 -20433191.805 -4560806.725 10 0 61085 30600.00000 0 -14177079.428 -19752669.392 -7677371.037 10 0 61085 31500.00000 0 -13482508.809 -18842693.917 -10644596.064 10 0 61085 32400.00000 0 -12452422.632 -17760177.731 -13404788.842 10 0 61085 33300.00000 0 -11083799.850 -16565897.539 -15904304.279 10 0 61085 34200.00000 0 -9386822.875 -15321856.490 -18094589.681 10 0 61085 35100.00000 0 -7384702.388 -14088615.274 -19933127.461 10 0 61085 36000.00000 0 -5112959.298 -12922705.024 -21384257.912 10 0 61085 36900.00000 0 -2618193.477 -11874230.971 -22419866.501 10 0 61085 37800.00000 0 43609.700 -10984767.327 -23019923.006 10 0 61085 38700.00000 0 2809164.863 -10285631.208 -23172862.861 10 0 61085 39600.00000 0 5610277.813 -9796607.273 -22875804.072 10 0 61085 40500.00000 0 8376443.547 -9525175.568 -22134596.237 10 0 61085 41400.00000 0 11037543.926 -9466273.977 -20963701.272 10 0 61085 42300.00000 0 13526533.717 -9602604.223 -19385908.490 10 0 61085 43200.00000 0 15782004.393 -9905467.727 -17431889.707 10 0 61085 44100.00000 0 17750520.137 -10336095.473 -15139602.930 10 0 61085 45000.00000 0 19388629.896 -10847415.465 -12553555.994 10 0 61085 45900.00000 0 20664472.766 -11386183.058 -9723944.154 10 0 61085 46800.00000 0 21558910.796 -11895384.234 -6705678.015 10 0 61085 47700.00000 0 22066142.881 -12316810.424 -3557320.446 10 0 61085 48600.00000 0 22193775.008 -12593696.230 -339952.853 10 0 61085 49500.00000 0 21962344.752 -12673308.642 2884007.306 10 0 61085 50400.00000 0 21404320.660 -12509378.333 6052014.869 10 0 61085 51300.00000 0 20562619.128 -12064270.158 9102607.739 10 0 61085 52200.00000 0 19488701.464 -11310800.878 11976596.666 10 0 61085 53100.00000 0 18240331.342 -10233626.846 14618210.964 10 0 61085 54000.00000 0 16879086.955 -8830142.407 16976178.106 10 0 61085 54900.00000 0 15467732.283 -7110850.131 19004716.506 10 0 61085 55800.00000 0 14067557.650 -5099186.054 20664422.489 10 0 61085 56700.00000 0 12735800.874 -2830805.753 21923034.583 10 0 61085 57600.00000 0 11523256.819 -352359.460 22756060.626 10 0 61085 58500.00000 0 10472175.244 2280194.326 23147255.703 10 0 61085 59400.00000 0 9614534.744 5003668.092 23088941.720 10 0 61085 60300.00000 0 8970764.938 7750032.467 22582162.263 10 0 61085 61200.00000 0 8548970.368 10449013.273 21636669.368 10 0 61085 62100.00000 0 8344688.670 13030791.616 20270741.910 10 0 61085 63000.00000 0 8341193.262 15428695.535 18510838.366 10 0 61085 63900.00000 0 8510327.952 17581771.653 16391089.928 10 0 61085 64800.00000 0 8813838.442 19437129.995 13952642.971 10 0 61085 65700.00000 0 9205144.644 20951964.161 11242862.980 10 0 61085 66600.00000 0 9631478.861 22095162.377 8314414.943 10 0 61085 67500.00000 0 10036299.166 22848441.866 5224237.922 10 0 61085 68400.00000 0 10361875.331 23206958.983 2032433.836 10 0 61085 69300.00000 0 10551937.049 23179369.583 -1198907.399 10 0 61085 70200.00000 0 10554271.338 22787337.426 -4406922.834 10 0 61085 71100.00000 0 10323158.016 22064511.896 -7529207.011 10 0 61085 72000.00000 0 9821538.990 21055018.828 -10505033.116 10 0 61085 72900.00000 0 9022828.440 19811528.986 -13276540.093 10 0 61085 73800.00000 0 7912286.359 18392986.505 -15789861.911 10 0 61085 74700.00000 0 6487896.565 16862093.909 -17996176.513 10 0 61085 75600.00000 0 4760711.390 15282660.303 -19852653.885 10 0 61085 76500.00000 0 2754647.899 13716924.724 -21323285.016 10 0 61085 77400.00000 0 505743.596 12222967.304 -22379576.034 10 0 61085 78300.00000 0 -1939097.739 10852316.659 -23001094.760 10 0 61085 79200.00000 0 -4523818.232 9647853.297 -23175859.822 10 0 61085 80100.00000 0 -7185305.239 8642096.030 -22900565.626 10 0 61085 81000.00000 0 -9855791.017 7855942.059 -22180639.520 10 0 61085 81900.00000 0 -12465453.616 7297912.247 -21030130.635 10 0 61085 82800.00000 0 -14945111.575 6963931.907 -19471432.915 10 0 61085 83700.00000 0 -17228901.272 6837655.050 -17534847.859 10 0 61085 84600.00000 0 -19256826.417 6891317.361 -15257995.389 10 0 61085 85500.00000 0 -20977074.480 7087081.162 -12685084.056 10 0 61086 0.00000 0 -22348004.315 7378815.037 -9866054.734 10 0 61086 900.00000 0 -23339723.601 7714232.822 -6855612.490 10 0 61086 1800.00000 0 -23935189.228 8037301.050 -3712168.994 10 0 61086 2700.00000 0 -24130787.791 8290813.546 -496710.740 10 0 61086 3600.00000 0 -23936370.607 8419023.953 2728381.392 10 0 61086 4500.00000 0 -23374743.138 8370224.917 5900539.826 10 0 61086 5400.00000 0 -22480630.527 8099164.781 8958221.553 10 0 61086 6300.00000 0 -21299162.960 7569199.367 11842099.546 10 0 61086 7200.00000 0 -19883944.606 6754087.544 14496211.184 10 0 61086 8100.00000 0 -18294787.159 5639354.173 16869041.598 10 0 61086 9000.00000 0 -16595202.956 4223162.099 18914521.139 10 0 61086 9900.00000 0 -14849762.472 2516655.351 20592917.898 10 0 61086 10800.00000 0 -13121426.545 543757.743 21871608.294 10 0 61086 11700.00000 0 -11468964.562 -1659566.319 22725711.117 10 0 61086 12600.00000 0 -9944566.177 -4046559.613 23138572.930 10 0 61086 13500.00000 0 -8591745.973 -6561378.118 23102095.466 10 0 61086 14400.00000 0 -7443628.304 -9141185.885 22616898.576 10 0 61086 15300.00000 0 -6521683.709 -11718552.940 21692315.168 10 0 61086 16200.00000 0 -5834969.546 -14224057.709 20346217.708 10 0 61086 17100.00000 0 -5379906.429 -16588986.571 18604678.905 10 0 61086 18000.00000 0 -5140599.733 -18748018.684 16501472.356 10 0 61086 18900.00000 0 -5089692.454 -20641784.473 14077422.060 10 0 61086 19800.00000 0 -5189713.340 -22219191.010 11379612.722 10 0 61086 20700.00000 0 -5394863.124 -23439416.875 8460475.735 10 0 61086 21600.00000 0 -5653162.987 -24273492.701 5376768.415 10 0 61086 22500.00000 0 -5908873.740 -24705400.846 2188466.421 10 0 61086 23400.00000 0 -6105082.519 -24732647.793 -1042408.585 10 0 61086 24300.00000 0 -6186346.418 -24366285.224 -4253002.567 10 0 61086 25200.00000 0 -6101279.955 -23630379.087 -7380859.496 10 0 61086 26100.00000 0 -5804975.565 -22560949.444 -10365143.563 10 0 61086 27000.00000 0 -5261153.486 -21204426.417 -13147828.515 10 0 61086 27900.00000 0 -4443949.009 -19615687.978 -15674830.250 10 0 61086 28800.00000 0 -3339260.614 -17855762.978 -17897060.103 10 0 61086 29700.00000 0 -1945601.297 -15989296.687 -19771378.193 10 0 61086 30600.00000 0 -274416.541 -14081885.796 -21261428.468 10 0 61086 31500.00000 0 1650145.045 -12197394.927 -22338339.610 10 0 61086 32400.00000 0 3791999.336 -10395366.997 -22981278.931 10 0 61086 33300.00000 0 6104400.981 -8728635.327 -23177849.244 10 0 61086 34200.00000 0 8531671.673 -7241236.593 -22924321.869 10 0 61086 35100.00000 0 11011310.900 -5966710.732 -22225701.958 10 0 61086 36000.00000 0 13476401.901 -4926857.509 -21095625.477 10 0 61086 36900.00000 0 15858213.339 -4131000.313 -19556090.195 10 0 61086 37800.00000 0 18088889.098 -3575786.462 -17637026.061 10 0 61086 38700.00000 0 20104115.042 -3245530.954 -15375713.229 10 0 61086 39600.00000 0 21845652.314 -3113087.972 -12816058.839 10 0 61086 40500.00000 0 23263632.320 -3141212.431 -10007746.276 10 0 61086 41400.00000 0 24318518.287 -3284353.439 -7005273.070 10 0 61086 42300.00000 0 24982652.001 -3490803.430 -3866895.847 10 0 61086 43200.00000 0 25241321.594 -3705111.890 -653502.573 10 0 61086 44100.00000 0 25093306.078 -3870661.416 2572566.192 10 0 61086 45000.00000 0 24550874.175 -3932297.042 5748724.170 10 0 61086 45900.00000 0 23639237.728 -3838897.507 8813351.006 10 0 61086 46800.00000 0 22395482.751 -3545779.508 11706985.171 10 0 61086 47700.00000 0 20867022.959 -3016833.054 14373475.038 10 0 61086 48600.00000 0 19109640.527 -2226297.247 16761065.905 10 0 61086 49500.00000 0 17185195.871 -1160100.888 18823402.134 10 0 61086 50400.00000 0 15159102.043 183289.503 20520425.213 10 0 61086 51300.00000 0 13097668.902 1792551.125 21819150.648 10 0 61086 52200.00000 0 11065427.510 3643730.618 22694308.957 10 0 61086 53100.00000 0 9122545.984 5701006.228 23128838.511 10 0 61086 54000.00000 0 7322444.056 7917956.271 23114220.776 10 0 61086 54900.00000 0 5709705.358 10239282.664 22650651.325 10 0 61086 55800.00000 0 4318374.094 12602919.182 21747042.953 10 0 61086 56700.00000 0 3170706.763 14942437.948 20420860.315 10 0 61086 57600.00000 0 2276430.760 17189654.954 18697788.547 10 0 61086 58500.00000 0 1632540.500 19277326.650 16611241.509 10 0 61086 59400.00000 0 1223639.285 21141825.485 14201718.386 10 0 61086 60300.00000 0 1022812.115 22725682.660 11516020.433 10 0 61086 61200.00000 0 992992.258 23979891.477 8606342.603 10 0 61086 62100.00000 0 1088763.326 24865874.366 5529257.494 10 0 61086 63000.00000 0 1258519.997 25357030.586 2344611.474 10 0 61086 63900.00000 0 1446895.094 25439799.103 -885645.086 10 0 61086 64800.00000 0 1597349.211 25114191.589 -4098670.015 10 0 61086 65700.00000 0 1654812.025 24393773.010 -7231959.511 10 0 61086 66600.00000 0 1568262.219 23305090.681 -10224571.338 10 0 61086 67500.00000 0 1293135.513 21886576.158 -13018316.328 10 0 61086 68400.00000 0 793457.825 20186966.659 -15558894.270 10 0 61086 69300.00000 0 43612.364 18263313.018 -17796951.545 10 0 61086 70200.00000 0 -970334.787 16178658.422 -19689039.755 10 0 61086 71100.00000 0 -2249807.143 13999485.801 -21198456.880 10 0 61086 72000.00000 0 -3783423.749 11793041.103 -22295954.984 10 0 61086 72900.00000 0 -5547251.393 9624644.439 -22960301.448 10 0 61086 73800.00000 0 -7505592.999 7555101.086 -23178683.592 10 0 61086 74700.00000 0 -9612279.648 5638319.772 -22946949.667 10 0 61086 75600.00000 0 -11812412.756 3919236.575 -22269682.303 10 0 61086 76500.00000 0 -14044484.237 2432129.713 -21160103.593 10 0 61086 77400.00000 0 -16242786.837 1199394.069 -19639814.016 10 0 61086 78300.00000 0 -18340014.783 230824.992 -17738370.461 10 0 61086 79200.00000 0 -20269946.994 -476560.302 -15492711.459 10 0 61086 80100.00000 0 -21970101.538 -938157.799 -12946440.603 10 0 61086 81000.00000 0 -23384251.173 -1180884.890 -10148981.706 10 0 61086 81900.00000 0 -24464695.386 -1241800.373 -7154621.786 10 0 61086 82800.00000 0 -25174194.365 -1166295.252 -4021460.131 10 0 61086 83700.00000 0 -25487484.301 -1005931.298 -810283.606 10 0 61086 84600.00000 0 -25392310.799 -816019.099 2416610.123 10 0 61086 85500.00000 0 -24889937.198 -653038.264 5596618.659 10 0 61087 0.00000 0 -23995106.652 -572009.064 8668046.584 10 0 61087 900.00000 0 -22735458.931 -623926.817 11571300.949 10 0 61087 1800.00000 0 -21150427.507 -853367.783 14250043.272 10 0 61087 2700.00000 0 -19289661.272 -1296367.878 16652281.317 10 0 61087 3600.00000 0 -17211037.665 -1978664.363 18731375.548 10 0 61087 4500.00000 0 -14978349.430 -2914375.265 20446942.667 10 0 61087 5400.00000 0 -12658761.129 -4105173.062 21765638.760 10 0 61087 6300.00000 0 -10320140.915 -5539988.557 22661807.186 10 0 61087 7200.00000 0 -8028378.183 -7195258.759 23117978.860 10 0 61087 8100.00000 0 -5844798.179 -9035709.966 23125215.324 10 0 61087 9000.00000 0 -3823780.594 -11015644.927 22683287.848 10 0 61087 9900.00000 0 -2010680.808 -13080681.874 21800688.750 10 0 61087 10800.00000 0 -440139.804 -15169874.232 20494474.180 10 0 61087 11700.00000 0 865147.192 -17218123.705 18789940.700 10 0 61087 12600.00000 0 1895152.375 -19158786.801 16720141.135 10 0 61087 13500.00000 0 2652697.608 -20926366.338 14325248.271 10 0 61087 14400.00000 0 3153090.107 -22459175.514 11651778.060 10 0 61087 15300.00000 0 3423227.430 -23701862.697 8751686.913 10 0 61087 16200.00000 0 3500210.152 -24607690.630 5681360.415 10 0 61087 17100.00000 0 3429521.556 -25140473.700 2500513.189 10 0 61087 18000.00000 0 3262852.200 -25276091.139 -728978.240 10 0 61087 18900.00000 0 3055662.489 -25003511.879 -3944286.196 10 0 61087 19800.00000 0 2864587.608 -24325287.422 -7082861.772 10 0 61087 20700.00000 0 2744796.001 -23257491.692 -10083658.993 10 0 61087 21600.00000 0 2747414.441 -21829110.379 -12888328.461 10 0 61087 22500.00000 0 2917129.842 -20080905.636 -15442356.485 10 0 61087 23400.00000 0 3290070.234 -18063804.189 -17696127.012 10 0 61087 24300.00000 0 3892055.207 -15836876.962 -19605885.469 10 0 61087 25200.00000 0 4737290.301 -13464995.271 -21134585.952 10 0 61087 26100.00000 0 5827560.768 -11016261.976 -22252605.665 10 0 61087 27000.00000 0 7151958.993 -8559324.967 -22938313.439 10 0 61087 27900.00000 0 8687157.314 -6160684.841 -23178482.070 10 0 61087 28800.00000 0 10398215.087 -3882108.458 -22968537.305 10 0 61087 29700.00000 0 12239886.553 -1778255.192 -22312639.422 10 0 61087 30600.00000 0 14158375.214 105386.471 -21223596.413 10 0 61087 31500.00000 0 16093461.856 1734167.484 -19722610.871 10 0 61087 32400.00000 0 17980917.855 3085483.984 -17838865.640 10 0 61087 33300.00000 0 19755103.518 4149471.625 -15608956.253 10 0 61087 34200.00000 0 21351643.418 4929161.124 -13076180.951 10 0 61087 35100.00000 0 22710067.397 5440090.077 -10289701.756 10 0 61087 36000.00000 0 23776307.177 5709388.725 -7303592.547 10 0 61087 36900.00000 0 24504944.390 5774379.264 -4175792.280 10 0 61087 37800.00000 0 24861116.051 5680748.605 -966983.471 10 0 61087 38700.00000 0 24821997.693 5480372.334 2260582.529 10 0 61087 39600.00000 0 24377801.944 5228882.228 5444290.648 10 0 61087 40500.00000 0 23532250.485 4983080.421 8522374.310 10 0 61087 41400.00000 0 22302499.357 4798309.725 11435111.211 10 0 61087 42300.00000 0 20718520.338 4725891.428 14125979.488 10 0 61087 43200.00000 0 18821963.874 4810739.003 16542751.974 10 0 61087 44100.00000 0 16664550.494 5089248.758 18638507.502 10 0 61087 45000.00000 0 14306057.343 5587556.819 20372539.919 10 0 61087 45900.00000 0 11811983.131 6320236.495 21711147.463 10 0 61087 46800.00000 0 9250988.047 7289491.687 22628287.553 10 0 61087 47700.00000 0 6692214.527 8484881.297 23106084.484 10 0 61087 48600.00000 0 4202599.554 9883587.503 23135180.297 10 0 61087 49500.00000 0 1844289.514 11451218.052 22714921.942 10 0 61087 50400.00000 0 -327735.496 13143110.450 21853380.765 10 0 61087 51300.00000 0 -2267729.716 14906084.862 20567203.435 10 0 61087 52200.00000 0 -3940856.578 16680573.621 18881296.495 10 0 61087 53100.00000 0 -5324400.970 18403039.173 16828349.848 10 0 61087 54000.00000 0 -6408468.816 20008579.849 14448207.633 10 0 61087 54900.00000 0 -7196145.187 21433614.538 11787097.938 10 0 61087 55800.00000 0 -7703104.879 22618533.474 8896735.851 10 0 61087 56700.00000 0 -7956692.516 23510203.430 5833317.001 10 0 61087 57600.00000 0 -7994511.726 24064221.284 2656421.229 10 0 61087 58500.00000 0 -7862583.888 24246820.308 -572151.866 10 0 61087 59400.00000 0 -7613155.335 24036348.069 -3789592.147 10 0 61087 60300.00000 0 -7302246.984 23424252.889 -6933308.562 10 0 61087 61200.00000 0 -6987051.348 22415536.743 -9942154.191 10 0 61087 62100.00000 0 -6723288.379 21028655.103 -12757621.965 10 0 61087 63000.00000 0 -6562633.185 19294867.806 -15324987.005 10 0 61087 63900.00000 0 -6550325.398 17257068.243 -17594372.807 10 0 61087 64800.00000 0 -6723062.029 14968140.214 -19521720.299 10 0 61087 65700.00000 0 -7107263.289 12488911.461 -21069641.065 10 0 61087 66600.00000 0 -7717784.834 9885789.720 -22208138.535 10 0 61087 67500.00000 0 -8557130.834 7228179.990 -22915183.789 10 0 61087 68400.00000 0 -9615201.043 4585790.526 -23177135.599 10 0 61087 69300.00000 0 -10869582.510 2025939.305 -22988997.388 10 0 61087 70200.00000 0 -12286373.795 -389027.758 -22354506.898 10 0 61087 71100.00000 0 -13821507.308 -2604100.534 -21286057.450 10 0 61087 72000.00000 0 -15422514.621 -4573653.312 -19804452.755 10 0 61087 72900.00000 0 -17030661.221 -6263094.637 -17938500.227 10 0 61087 73800.00000 0 -18583361.760 -7650051.233 -15724450.624 10 0 61087 74700.00000 0 -20016775.116 -8725038.295 -13205294.750 10 0 61087 75600.00000 0 -21268470.994 -9491589.748 -10429930.502 10 0 61087 76500.00000 0 -22280056.713 -9965844.536 -7452216.098 10 0 61087 77400.00000 0 -22999654.274 -10175607.618 -4329927.541 10 0 61087 78300.00000 0 -23384123.922 -10158926.233 -1123640.280 10 0 61087 79200.00000 0 -23400940.907 -9962242.300 2104443.387 10 0 61087 80100.00000 0 -23029646.454 -9638199.450 5291698.488 10 0 61087 81000.00000 0 -22262811.788 -9243197.744 8376289.775 10 0 61087 81900.00000 0 -21106474.292 -8834799.585 11298368.855 10 0 61087 82800.00000 0 -19580026.963 -8469096.594 14001232.818 10 0 61087 83700.00000 0 -17715565.132 -8198148.738 16432422.007 10 0 61087 84600.00000 0 -15556716.983 -8067603.919 18544735.844 10 0 61087 85500.00000 0 -13157005.914 -8114598.636 20297147.219 99